User: anonymous   Login
Location: Theydon Bois
(51.6750°N, 0.1050°E)
Time: 00:44:26
(UTC+01:00)
Language:

Cosmos 1500 Rocket - Orbit

View from above orbital plane
View from above orbital plane
View from above satellite
View from above satellite

Ground track
Ground track

The orbit data is extracted from the following two-line orbital elements,

1 14373U 83099B   17292.58412560 +.00000107 +00000-0 +10011-4 0  9994
2 14373 082.5382 128.3071 0020356 171.9184 214.0064 14.83697565818229
Epoch (UTC): 19 October 2017 14:01:08
Eccentricity: 0.0020356
inclination: 82.5382°
perigee height: 603 km
apogee height: 632 km
right ascension of ascending node: 128.3071°
argument of perigee: 171.9184°
revolutions per day: 14.83697565
mean anomaly at epoch: 214.0064°
orbit number at epoch: 81822

The dashed part of the orbit path shows where the satellite is in the earth's shadow,  

DLR